Regional Weather Roundup
Issued by NWS Goodland, KS

Home | Current Version | Previous Version | Graphics & Text | Print | Product List | Glossary On
Versions: 1 2 3 4 5 6 7 8 9 10 11 12 13 14 15 16 17 18 19 20 21 22 23 24 25 26 27 28 29 30 31 32 33 34 35 36 37 38 39 40 41 42 43 44 45 46 47 48 49 50
000
ASUS43 KGLD 050708
RWRGLD

GOODLAND FORECAST AREA HOURLY WEATHER ROUNDUP
NATIONAL WEATHER SERVICE GOODLAND KS
100 AM MDT SUN JUL 05 2015

...OFFICIAL OBSERVATIONS...

CITY           SKY/WX    TMP DP  RH WIND       PRES   REMARKS
GOODLAND KS    CLOUDY    74  61  63 S18       29.90F
HILL CITY KS   MOCLDY    78  66  66 S12       29.89F
IMPERIAL NEB   MOCLDY    76  61  59 SE12      29.88F
MCCOOK NEB     MOCLDY    76  63  64 SE7       29.88S
AKRON CO       MOCLDY    74  50  42 SE8G21    29.97R
BURLINGTON CO  PTCLDY    69  56  62 SE10      29.93F
LIMON CO       PTCLDY    59  54  83 NW5       30.01F
$$

...UNOFFICIAL OBSERVATIONS...

CITY           SKY/WX    TMP DP  RH WIND       PRES   REMARKS
COLBY KS       CLEAR     79  66  65 SE15G25   29.91S
GOVE KS          N/A     77  32  19 MISG        N/A
NORTON KS      CLEAR     73  59  60 SE8       29.89S
SHARON SPRINGS   N/A     72  61  67 S10         N/A
KIT CARSON CO    N/A     69  57  65 MISG        N/A
$$



USA.gov is the U.S. government's official web portal to all federal, state and local government web resources and services.